Location: Hamilton
(37.7830°S, 175.2830°E)
Time: 16:16:23
(UTC+12:00)

Cosmos 2181 Rocket - Pass Details

Date: 24 January 2019
Orbit: 951 x 1015 km, 82.9° (Epoch: 17 April)

Event Time Altitude Azimuth Distance (km) Brightness Sun altitude
Rises 23:31:09 0° 183° (S) 3,670 8.0 -26.4°
Reaches altitude 10° 23:33:42 10° 180° (S) 2,723 7.1 -26.7°
Maximum altitude 23:39:52 62° 99° (E) 1,097 4.1 -27.3°
Enters shadow 23:40:10 61° 84° (E) 1,104 4.0 -27.3°
